Home > Weather > Norfolk > Past weeks

Flag for USA Past Weather in Norfolk, Virginia, USA — Yesterday and Last 2 Weeks

Now
85 °F

Partly sunny.


Feels Like: 88 °F
Forecast: 74 / 85 °F
Wind: 14 mph from Northeast

Location: Norfolk Naval Air Station

Current Time: Aug 29, 2016 at 5:53:46 PM

Latest Report: Aug 29, 2016 at 4:59 PM


Visibility: 10 mi

Pressure: 30.10 "Hg

Humidity: 57%

Dew Point: 68 °F

Location of NorfolkLocation

Past Weather in Norfolk — Graph

°F

Norfolk Temperature Yesterday

Maximum temperature yesterday: 86 °F (at 12:59 PM)
Minimum temperature yesterday: 78 °F (at 3:59 AM)
Average temperature yesterday: 81 °F

High & Low Weather Summary for the Past Weeks

 TemperatureHumidityPressure
High95 °F (Aug 17, 4:59 PM)96% (Aug 20, 5:59 AM)30.34 "Hg (Aug 20, 5:59 AM)
Low64 °F (Aug 24, 3:59 AM)43% (Aug 22, 2:59 PM)29.77 "Hg (Aug 21, 3:59 PM)
Average81 °F71%30.09 "Hg
* Reported Aug 14 4:59 PM — Aug 29 4:59 PM, Norfolk, Weather by CustomWeather, © 2016

Note: Actual official high and low records may vary slightly from our data, if they occured in-between our weather recording intervals... More about our weather records

Advertising

Norfolk Weather History for the Previous 24 Hours

Scroll right to see more
 ConditionsComfort  
Time TempWeatherWind HumidityBarometerVisibility
4:59 PM
Mon, Aug 29
85 °FSunny.14 mph57%30.10 "Hg10 mi
3:59 PM85 °FBroken clouds.9 mph61%30.09 "Hg10 mi
2:59 PM87 °FBroken clouds.9 mph46%30.11 "Hg10 mi
1:59 PM87 °FBroken clouds.12 mph46%30.13 "Hg10 mi
12:59 PM88 °FBroken clouds.15 mph54%30.14 "Hg10 mi
11:59 AM84 °FBroken clouds.15 mph70%30.15 "Hg10 mi
10:59 AM83 °FPartly sunny.13 mph72%30.16 "Hg10 mi
9:59 AM82 °FPartly sunny.10 mph74%30.15 "Hg10 mi
8:59 AM79 °FPartly sunny.8 mph82%30.14 "Hg10 mi
7:59 AM79 °FBroken clouds.8 mph82%30.12 "Hg10 mi
6:59 AM77 °FPassing clouds.7 mph88%30.11 "Hg9 mi
5:59 AM77 °FPartly cloudy.8 mph85%30.11 "Hg10 mi
4:59 AM78 °FMostly cloudy.12 mph82%30.11 "Hg10 mi
3:59 AM77 °FPartly cloudy.6 mph82%30.12 "Hg10 mi
2:59 AM77 °FPassing clouds.8 mph82%30.14 "Hg10 mi
1:59 AM78 °FPartly cloudy.7 mph79%30.15 "Hg10 mi
12:59 AM78 °FMostly cloudy.9 mph79%30.16 "Hg10 mi
11:59 PM
Sun, Aug 28
78 °FPartly cloudy.8 mph79%30.15 "Hg10 mi
10:59 PM78 °FPassing clouds.8 mph79%30.15 "Hg10 mi
9:59 PM78 °FPassing clouds.9 mph79%30.15 "Hg10 mi
8:59 PM78 °FPassing clouds.10 mph76%30.15 "Hg10 mi
7:59 PM79 °FBroken clouds.8 mph74%30.15 "Hg10 mi
6:59 PM80 °FBroken clouds.13 mph74%30.15 "Hg10 mi
5:59 PM81 °FBroken clouds.10 mph72%30.15 "Hg10 mi
Weather by CustomWeather, © 2016

See weather overviewHow to use our weather pages